Regional Weather Roundup
Issued by NWS

Home | Current Version | Previous Version | Text Only | Print | Product List | Glossary On
Versions: 1 2 3 4 5 6 7 8 9 10 11 12 13 14 15 16 17 18 19 20 21 22 23 24 25 26 27 28 29 30 31 32 33 34 35 36 37 38 39 40 41 42 43 44 45 46 47 48 49 50
000
ASUS44 KJAN 190310
RWRMS

MISSISSIPPI HOURLY WEATHER ROUNDUP
NATIONAL WEATHER SERVICE JACKSON MS
900 PM CST THU DEC 18 2014

NOTE: "FAIR: INDICATES FEW OR NO CLOUDS BELOW 12,000 FEET WITH NO
SIGNIFICANT WEATHER AND/OR OBSTRUCTIONS TO VISIBILITY.

MSZ001>002-007>008-010>013-018>021-025>028-034>036-190400-
NORTHWEST MISSISSIPPI

CITY           SKY/WX    TMP DP  RH WIND       PRES   REMARKS
CLARKSDALE     CLOUDY    45  41  87 N8        30.24R
CLEVELAND      CLOUDY    47  44  90 NE6       30.20F
GREENWOOD      CLOUDY    49  40  71 NE5       30.20R
GREENVILLE     CLOUDY    49  44  83 E7        30.19F
GRENADA        CLOUDY    45  39  81 CALM      30.22R
OLIVE BRANCH   CLOUDY    43  39  87 NE3       30.23R
OXFORD         CLOUDY    41  37  87 NE3       30.23R
TUNICA         CLOUDY    43  39  87 N6        30.25R
$$

MSZ003>006-009-014>017-022>024-029>033-037>039-190400-
NORTHEAST MISSISSIPPI

CITY           SKY/WX    TMP DP  RH WIND       PRES   REMARKS
COLUMBUS AFB   PTCLDY    45  37  76 NW1       30.21R
CORINTH        CLOUDY    45  37  76 NE5       30.22R
GOLDN TRIANGLE PTCLDY    43  36  75 N6        30.19F
STARKVILLE     CLOUDY    46  37  71 N7        30.20S
TUPELO         CLOUDY    45  38  76 NE7       30.21S
$$

MSZ040-058-190400-
CENTRAL MISSISSIPPI

CITY           SKY/WX    TMP DP  RH WIND       PRES   REMARKS
JACKSON INTL   MOCLDY    46  44  93 NE5       30.18S
JACKSON HAWKNS MOCLDY    47  44  90 NE3       30.18S FOG
MERIDIAN KEY   CLOUDY    44  42  93 NW3       30.19R
MERIDIAN NAS   CLOUDY    41  38  89 NW3       30.19S
RAYMOND        CLOUDY    45  39  81 CALM      30.19R
VICKSBURG      MOCLDY    44  42  93 E5        30.18S
$$

MSZ059>079-190400-
SOUTH MISSISSIPPI

CITY           SKY/WX    TMP DP  RH WIND       PRES   REMARKS
HATTIESBURG    CLOUDY    51  49  92 NE3       30.18S
MCCOMB         CLOUDY    51  49  92 VRB3      30.16R
NATCHEZ        CLOUDY    50  46  87 NE5       30.16S
PINE BELT      CLOUDY    48  46  93 NE3       30.18S
$$

MSZ080>082-190400-
COASTAL MISSISSIPPI

CITY           SKY/WX    TMP DP  RH WIND       PRES   REMARKS
BAY ST LOUIS   CLOUDY    57  48  72 CALM      30.14S
BILOXI         CLOUDY    59  50  72 E6        30.15S
PASCAGOULA     CLOUDY    57  48  72 NE5       30.16S
GULFPORT       CLOUDY    59  50  72 NE3       30.15R
$$


USA.gov is the U.S. government's official web portal to all federal, state and local government web resources and services.